Home   Weather   Pyatigorsk   Past weeks

Flag for Russia Past Weather in Pyatigorsk, Russia — Yesterday and Last 2 Weeks

36 °F


Feels Like: 28 °F
Forecast: 34 / 45 °F
Wind: 10 mph from East

Location: Mineral'Nye Vody

Current Time: Oct 27, 2016 at 7:55:24 PM

Latest Report: Oct 27, 2016 at 7:00 PM

Visibility: N/A

Pressure: 30.39 "Hg (28.44 "Hg at 533m altitude)

Humidity: 93%

Dew Point: 34 °F

Location of PyatigorskLocation

Past Weather in Pyatigorsk — Graph


Pyatigorsk Temperature Yesterday

Maximum temperature yesterday: 36 °F (at 4:00 PM)
Minimum temperature yesterday: 28 °F (at 6:00 AM)
Average temperature yesterday: 32 °F

High & Low Weather Summary for the Past Weeks

High59 °F (Oct 14, 12:30 PM)100% (Oct 13, 12:00 AM)30.60 "Hg (Oct 13, 12:00 AM)
Low28 °F (Oct 26, 6:00 AM)53% (Oct 18, 1:00 PM)29.92 "Hg (Oct 14, 12:30 PM)
Average41 °F91%30.32 "Hg
* Reported Oct 12 6:00 PM — Oct 27 6:00 PM, Pyatigorsk, Weather by CustomWeather, © 2016

Note: Actual official high and low records may vary slightly from our data, if they occured in-between our weather recording intervals... More about our weather records


Pyatigorsk Weather History for the Previous 24 Hours

Scroll right to see more
Time TempWeatherWind HumidityBarometerVisibility
6:00 PM
Thu, Oct 27
36 °FOvercast.10 mph87%30.39 "HgN/A
5:30 PM36 °FLow clouds.13 mph93%30.36 "HgN/A
5:00 PM36 °FLow clouds.10 mph87%30.36 "HgN/A
4:30 PM36 °FOvercast.10 mph87%30.36 "HgN/A
4:00 PM36 °FLow clouds.10 mph93%30.36 "HgN/A
3:30 PM36 °FOvercast.13 mph87%30.36 "HgN/A
3:00 PM36 °FOvercast.13 mph87%30.36 "HgN/A
2:30 PM36 °FLow clouds.10 mph93%30.36 "HgN/A
2:00 PM36 °FLow clouds.13 mph93%30.33 "HgN/A
1:30 PM36 °FLow clouds.10 mph93%30.33 "HgN/A
1:00 PM36 °FLow clouds.10 mph93%30.36 "HgN/A
12:00 PM36 °FLow clouds.8 mph93%30.33 "HgN/A
11:30 AM36 °FLow clouds.8 mph93%30.36 "HgN/A
11:00 AM34 °FLow clouds.8 mph100%30.36 "HgN/A
10:30 AM34 °FLow clouds.10 mph93%30.36 "HgN/A
10:00 AM34 °FLow clouds.10 mph93%30.36 "HgN/A
9:30 AM34 °FLow clouds.10 mph93%30.33 "HgN/A
9:00 AM32 °FLow clouds.8 mph100%30.36 "HgN/A
8:30 AM32 °FLow clouds.8 mph100%30.33 "Hg6 mi
8:00 AM32 °FLow clouds.8 mph100%30.33 "HgN/A
7:30 AM32 °FLight snow. Mostly cloudy.8 mph100%30.33 "HgN/A
7:00 AM32 °FLow clouds.10 mph100%30.33 "Hg5 mi
6:30 AM32 °FLow clouds.10 mph100%30.30 "HgN/A
6:00 AM32 °FLow clouds.10 mph100%30.30 "HgN/A
5:30 AM32 °FLight rain. Mostly cloudy.8 mph100%30.30 "HgN/A
5:00 AM32 °FLight rain. Mostly cloudy.6 mph100%30.30 "Hg6 mi
4:30 AM32 °FLight rain. Mostly cloudy.6 mph100%30.30 "Hg4 mi
4:00 AM32 °FChilly.6 mph100%30.27 "Hg1 mi
3:30 AM32 °FSnow flurries. Ice fog.3 mph100%30.27 "Hg1 mi
3:00 AM32 °FSnow flurries. Low clouds.6 mph100%30.27 "Hg4 mi
2:30 AM32 °FLight rain. Mostly cloudy.6 mph100%30.27 "Hg4 mi
2:00 AM32 °FDrizzle. Ice fog.6 mph100%30.27 "Hg2 mi
1:30 AM32 °FDrizzle. Ice fog.8 mph100%30.30 "Hg1 mi
1:00 AM32 °FDrizzle. Ice fog.8 mph100%30.30 "Hg2 mi
12:30 AM32 °FDrizzle. Low clouds.8 mph100%30.30 "Hg4 mi
12:00 AM32 °FLight snow. Mostly cloudy.6 mph100%30.30 "Hg3 mi
11:30 PM
Wed, Oct 26
32 °FLight snow. Mostly cloudy.6 mph100%30.30 "HgN/A
11:00 PM32 °FLight snow. Mostly cloudy.8 mph100%30.30 "Hg6 mi
10:30 PM34 °FLight snow. Mostly cloudy.13 mph93%30.33 "Hg6 mi
10:00 PM34 °FLight snow. Mostly cloudy.10 mph100%30.33 "Hg6 mi
9:30 PM34 °FLight snow. Mostly cloudy.13 mph100%30.33 "Hg3 mi
9:00 PM34 °FLight rain. Mostly cloudy.13 mph100%30.33 "Hg3 mi
8:30 PM34 °FLight rain. Mostly cloudy.13 mph100%30.33 "HgN/A
8:00 PM34 °FLight rain. Mostly cloudy.13 mph100%30.36 "Hg6 mi
7:30 PM34 °FLight rain. Mostly cloudy.10 mph100%30.36 "HgN/A
7:00 PM34 °FLight rain. Mostly cloudy.13 mph100%30.36 "Hg5 mi
Weather by CustomWeather, © 2016

See weather overviewHow to use our weather pages